Madison, SD

10:58 AM CDT on August 17, 2017 (GMT -0500)
Madison Municipal

Weather History for KMDS - August, 2014

Change the Weather History Date:

Wednesday, August 20, 2014

  Actual Average Record
Temperature  
Mean Temperature 71 °F -  
Max Temperature 80 °F 81 °F 86 °F (2013)
Min Temperature 62 °F 57 °F 44 °F (2012)
Cooling Degree Days 6    
Growing Degree Days 21 (Base 50)    
Moisture  
Dew Point 68 °F    
Average Humidity 94    
Maximum Humidity 100    
Minimum Humidity 65    
Precipitation  
Precipitation 0.02 in - - ()
Sea Level Pressure  
Sea Level Pressure 29.80 in    
Wind  
Wind Speed 7 mph (SE)    
Max Wind Speed 15 mph    
Max Gust Speed 24 mph    
Visibility 10 miles    
Events Rain , Thunderstorm    
Averages and records for this station are not official NWS values.
T = Trace of Precipitation, MM = Missing Value Source: NWS Daily Summary

Daily Weather History Graph

Daily Weather History Graph

Search for Another Location

Airport or City:

Trip Planner

Search our weather history database for the weather conditions in past years. The results will help you decide how hot, cold, wet, or windy it might be!

Date:

Astronomy

Aug. 20, 2014 Rise Set
Actual Time 6:37 AM CDT 8:24 PM CDT
Civil Twilight 6:07 AM CDT 8:55 PM CDT
Nautical Twilight 5:29 AM CDT 9:32 PM CDT
Astronomical Twilight 4:48 AM CDT 10:13 PM CDT
Moon 2:15 AM CDT (8/20) 5:14 PM CDT (8/20)
Length of Visible Light 14h 48m
Length of Day
13h 46m
Waning Crescent, 20% of the Moon is Illuminated
Aug 20
Waning Crescent
Aug 25
New
Sep 2
First Quarter
Sep 8
Full
Sep 15
Last Quarter

Hourly Weather History & Observations

Time (CDT) Temp. Heat Index Dew Point Humidity Pressure Visibility Wind Dir Wind Speed Gust Speed Precip Events Conditions
12:10 AM 66.2 °F - 66.2 °F 100% 29.83 in 10.0 mi SSE 4.6 mph - N/A   Clear
12:30 AM 66.2 °F - 66.2 °F 100% 29.83 in 10.0 mi SSE 4.6 mph - N/A   Clear
12:50 AM 66.2 °F - 66.2 °F 100% 29.83 in 10.0 mi SE 4.6 mph - N/A   Clear
1:10 AM 62.6 °F - 62.6 °F 100% 29.82 in 10.0 mi Calm Calm - N/A   Clear
1:30 AM 64.4 °F - 64.4 °F 100% 29.82 in 10.0 mi SSE 3.5 mph - N/A   Clear
1:50 AM 64.4 °F - 64.4 °F 100% 29.81 in 10.0 mi SSE 5.8 mph - N/A   Clear
2:10 AM 64.4 °F - 64.4 °F 100% 29.80 in 10.0 mi SSE 4.6 mph - N/A   Clear
2:30 AM 64.4 °F - 64.4 °F 100% 29.80 in 10.0 mi SSE 5.8 mph - N/A   Clear
2:50 AM 62.6 °F - 62.6 °F 100% 29.81 in 10.0 mi ENE 4.6 mph - N/A   Clear
3:10 AM 62.6 °F - 62.6 °F 100% 29.81 in 10.0 mi SW 4.6 mph - N/A   Clear
3:30 AM 62.6 °F - 62.6 °F 100% 29.80 in 10.0 mi East 4.6 mph - N/A   Clear
3:50 AM 62.6 °F - 62.6 °F 100% 29.80 in 10.0 mi East 4.6 mph - N/A   Clear
4:10 AM 62.6 °F - 62.6 °F 100% 29.77 in 10.0 mi East 4.6 mph - N/A   Clear
4:30 AM 62.6 °F - 62.6 °F 100% 29.81 in 10.0 mi South 4.6 mph - N/A   Scattered Clouds
4:50 AM 62.6 °F - 62.6 °F 100% 29.80 in 10.0 mi South 3.5 mph - N/A   Scattered Clouds
5:10 AM 64.4 °F - 64.4 °F 100% 29.81 in 10.0 mi SSE 3.5 mph - N/A   Scattered Clouds
5:30 AM 64.4 °F - 64.4 °F 100% 29.80 in 10.0 mi SSE 6.9 mph - N/A Thunderstorm Scattered Clouds
5:50 AM 64.4 °F - 64.4 °F 100% 29.84 in 10.0 mi SSW 10.4 mph - N/A Thunderstorm Mostly Cloudy
6:10 AM 66.2 °F - 66.2 °F 100% 29.83 in 10.0 mi SSE 9.2 mph - N/A Thunderstorm Mostly Cloudy
6:30 AM 66.2 °F - 66.2 °F 100% 29.82 in 10.0 mi East 4.6 mph - N/A   Overcast
6:50 AM 64.4 °F - 64.4 °F 100% 29.81 in 10.0 mi ENE 5.8 mph - N/A Rain Light Rain
7:10 AM 64.4 °F - 64.4 °F 100% 29.81 in 7.0 mi SE 10.4 mph - 0.01 in Rain Light Rain
7:30 AM 64.4 °F - 64.4 °F 100% 29.81 in 10.0 mi East 5.8 mph 21.9 mph 0.01 in Rain Light Rain
7:50 AM 64.4 °F - 64.4 °F 100% 29.78 in 10.0 mi SSE 9.2 mph - 0.02 in Rain Light Rain
8:10 AM 64.4 °F - 64.4 °F 100% 29.79 in 10.0 mi SSE 10.4 mph 16.1 mph N/A   Clear
8:30 AM 64.4 °F - 64.4 °F 100% 29.76 in 10.0 mi SSE 15.0 mph 24.2 mph N/A   Clear
8:50 AM 66.2 °F - 66.2 °F 100% 29.78 in 10.0 mi SSE 6.9 mph - N/A   Clear
9:10 AM 66.2 °F - 66.2 °F 100% 29.78 in 10.0 mi SE 8.1 mph - N/A   Clear
9:30 AM 69.8 °F - 69.8 °F 100% 29.81 in 10.0 mi South 11.5 mph 17.3 mph N/A   Clear
9:50 AM 69.8 °F - 69.8 °F 100% 29.80 in 10.0 mi SSE 8.1 mph 17.3 mph N/A   Clear
10:10 AM 71.6 °F - 71.6 °F 100% 29.80 in 10.0 mi SE 8.1 mph - N/A   Clear
10:30 AM 73.4 °F - 71.6 °F 94% 29.80 in 10.0 mi ESE 8.1 mph - N/A   Clear
10:50 AM 71.6 °F - 71.6 °F 100% 29.81 in 10.0 mi SE 9.2 mph - N/A   Clear
11:10 AM 73.4 °F - 71.6 °F 94% 29.82 in 10.0 mi SE 5.8 mph - N/A   Partly Cloudy
11:30 AM 75.2 °F - 71.6 °F 89% 29.82 in 10.0 mi ESE 8.1 mph - N/A   Partly Cloudy
11:50 AM 77.0 °F - 71.6 °F 83% 29.83 in 10.0 mi SSE 11.5 mph - N/A   Partly Cloudy
12:10 PM 77.0 °F - 71.6 °F 83% 29.83 in 10.0 mi SE 13.8 mph 17.3 mph N/A   Clear
12:30 PM 77.0 °F - 69.8 °F 78% 29.81 in 10.0 mi SE 11.5 mph 16.1 mph N/A   Clear
12:50 PM 77.0 °F - 69.8 °F 78% 29.81 in 10.0 mi SE 11.5 mph 16.1 mph N/A   Clear
1:10 PM 77.0 °F - 68.0 °F 74% 29.80 in 10.0 mi SE 11.5 mph 17.3 mph N/A   Clear
1:30 PM 77.0 °F - 68.0 °F 74% 29.80 in 10.0 mi SE 11.5 mph 20.7 mph N/A   Clear
1:50 PM 78.8 °F - 68.0 °F 69% 29.79 in 10.0 mi SE 11.5 mph 17.3 mph N/A   Clear
2:10 PM 80.6 °F 83.2 °F 68.0 °F 65% 29.79 in 10.0 mi SSE 12.7 mph 16.1 mph N/A   Clear
2:30 PM 78.8 °F - 68.0 °F 69% 29.80 in 10.0 mi SE 13.8 mph 18.4 mph N/A   Clear
2:50 PM 77.0 °F - 69.8 °F 78% 29.80 in 10.0 mi SSE 9.2 mph 17.3 mph N/A   Partly Cloudy
3:10 PM 77.0 °F - 71.6 °F 83% 29.80 in 10.0 mi SSE 10.4 mph 17.3 mph N/A   Partly Cloudy
3:30 PM 77.0 °F - 71.6 °F 83% 29.79 in 10.0 mi SE 8.1 mph - N/A   Scattered Clouds
3:50 PM 77.0 °F - 71.6 °F 83% 29.79 in 10.0 mi SSE 6.9 mph 16.1 mph N/A   Partly Cloudy
4:10 PM 77.0 °F - 71.6 °F 83% 29.79 in 10.0 mi SSE 10.4 mph - N/A   Mostly Cloudy
4:30 PM 78.8 °F - 71.6 °F 78% 29.78 in 10.0 mi South 12.7 mph - N/A   Scattered Clouds
4:50 PM 77.0 °F - 71.6 °F 83% 29.78 in 10.0 mi South 11.5 mph 17.3 mph N/A   Clear
5:10 PM 77.0 °F - 71.6 °F 83% 29.79 in 10.0 mi SSE 8.1 mph - N/A   Clear
5:30 PM 75.2 °F - 71.6 °F 89% 29.78 in 10.0 mi SSE 8.1 mph - N/A   Clear
5:50 PM 75.2 °F - 71.6 °F 89% 29.79 in 10.0 mi SSE 6.9 mph - N/A   Clear
6:10 PM 75.2 °F - 73.4 °F 94% 29.78 in 10.0 mi SE 10.4 mph - N/A   Clear
6:30 PM 75.2 °F - 71.6 °F 89% 29.79 in 10.0 mi SSE 8.1 mph - N/A   Clear
6:50 PM 75.2 °F - 71.6 °F 89% 29.78 in 10.0 mi SSE 12.7 mph - N/A   Clear
7:10 PM 75.2 °F - 71.6 °F 89% 29.78 in 10.0 mi SE 9.2 mph - N/A   Clear
7:30 PM 73.4 °F - 71.6 °F 94% 29.78 in 10.0 mi SE 12.7 mph - N/A   Clear
7:50 PM 73.4 °F - 73.4 °F 100% 29.78 in 10.0 mi SE 8.1 mph 16.1 mph N/A   Clear
8:10 PM 71.6 °F - 71.6 °F 100% 29.77 in 10.0 mi SE 11.5 mph - N/A   Clear
8:30 PM 71.6 °F - 71.6 °F 100% 29.78 in 10.0 mi SE 10.4 mph - N/A   Clear
8:50 PM 71.6 °F - 71.6 °F 100% 29.78 in 10.0 mi SE 10.4 mph 18.4 mph N/A   Clear
9:10 PM 71.6 °F - 71.6 °F 100% 29.78 in 10.0 mi ESE 8.1 mph - N/A   Clear
9:30 PM 71.6 °F - 71.6 °F 100% 29.78 in 10.0 mi SE 9.2 mph 17.3 mph N/A   Partly Cloudy
9:50 PM 71.6 °F - 71.6 °F 100% 29.78 in 10.0 mi SE 10.4 mph 16.1 mph N/A   Scattered Clouds
10:10 PM 71.6 °F - 71.6 °F 100% 29.78 in 10.0 mi SE 8.1 mph - N/A   Mostly Cloudy
10:30 PM 71.6 °F - 71.6 °F 100% 29.76 in 10.0 mi SE 11.5 mph 17.3 mph N/A   Mostly Cloudy
10:50 PM 71.6 °F - 71.6 °F 100% 29.76 in 10.0 mi SSE 10.4 mph - N/A   Partly Cloudy
11:10 PM 71.6 °F - 71.6 °F 100% 29.76 in 10.0 mi SSE 11.5 mph 17.3 mph N/A   Clear
11:30 PM 71.6 °F - 71.6 °F 100% 29.76 in 10.0 mi SSE 9.2 mph - N/A   Scattered Clouds
11:50 PM 71.6 °F - 71.6 °F 100% 29.76 in 10.0 mi SSE 8.1 mph - N/A   Partly Cloudy